Retour au catalogue

STARLINK-31626

ActifCommunicationsVLEO
NORAD 59392·PAYLOAD·🇺🇸 United States

Lancé Apr 2, 2024 depuis Vandenberg Space Force Base

Loading…

Prochains Passages (prochaines 24 heures)

TLE

FraisSource: CelesTrak SupGP

Époque: Sep 14, 2026, 21:35 UTC

1 59392C 24062U   26257.89979167 -.00004768  00000+0 -14091-3 0  2571
2 59392  53.1573  94.0214 0001369  85.2355 127.2439 15.34386885    11

Suivez STARLINK-31626 en temps réel avec AllMySat

Download on the App Store